Showing default

YAM-6, 59126

Orbit data source: Space-Track

YAM-6, 59126 is a payload satellite owned by Loft Orbital (US) in SSO that was launched on Mon, 04 Mar 2024 UTC via an FALCON 9 launch vehicle from the Air Force Western Test Range (AFWTR). Payload-class satellites include a variety of spacecraft equipped with specific instruments for various scientific and technological missions. These include communications satellites like Starlink; space stations such as the ISS; scientific satellites like the Hubble; Earth observation satellites from companies like Planet Labs, Umbra, and HawkEye 360; GPS; miniature CubeSats for education and research; and military/defense satellites.

Loading next visibility...
Identifier
59126, 2024-043AE
Orbit
SSO
Country
Flag of USUS
Related business
Manufacturer
LeoStella
Mission
Operational Commercial Technology
Bus & Motor
YAM, Unknown motor
Mass
87 kg wet, 87 kg dry
Launch date (UTC)
2024-03-04 (2 years ago)
Launch vehicle
FALCON 9
Launch site
Air Force Western Test Range (AFWTR)
Object type
Payload
Rocket body
Debris
Shape & HBR
Box, 1.0 m
Radar Cross Section
1.500 m², Medium (>0.1 m² and < 1m²)

Expand to show TLE details & history
Last TLE update: 15 hours ago

TLE from 15 hours ago
0 YAM-6
1 59126U 24043AE  26125.01273776  .00009068  00000-0  25692-3 0  9995
2 59126  97.5509 264.9755 0008866  32.3546 327.8240 15.36466286120689
Epoch: 2026-05-05T00:18Z
TLE epoch observation values (Epoch: 2026-05-05T00:18:20.542Z)
Latitude
0.00001°
Longitude
37.49622°
Altitude
454.548 km
Speed
7.643 km/s
True Right ascension
17h 39m 54s
True Declination
0° 00' 00"
Sunlit
Object was in full shadow at epoch
Visualization orbit readout
Latitude
Unknown
Longitude
Unknown
Altitude
Unknown
Speed
Unknown
Apparent Right ascension
Unknown
Apparent Declination
Unknown
Sunlit
N/A
Visualization observer readout
Local Sidereal Time
22:42:19
Azimuth
Unknown
Elevation
Unknown
Doppler factor
Unknown
Orbital elements
Apogee altitude
459.576 km
Perigee altitude
447.462 km
Semi-major axis
6,831.656 km
Eccentricity
0.00089
Inclination
97.5509°
RAAN
264.9755°
Arg. of periapsis
32.3546°
True anomaly
327.76985°
Mean anomaly
327.824°
Eccentric anomaly
327.79693°
Mean motion
3.84374 °/min
Orbital period
93.66 mins
BSTAR
0.00025692
Loading maneuver chart data...
Computing Atmospheric mass density...
Loading historical data...
Loading historical data...
Loading historical data...
Loading historical data...
Loading historical data...
Loading historical data...
Loading historical data...

Documentation

Showing up to 5 results
|